| time (UTC) | temp F | wind direction | speed knots | gust knots | rain 1hr in | rain 24hr in | rain mn in | humidity % | barometer mb |
| 20260503011527 | 43 | 0.0 | 0.0 | 0.00 | 0.00 | 0.00 | 63 | 1018.9 | |
| 20260503010527 | 43 | 0.0 | 0.0 | 0.00 | 0.00 | 0.00 | 61 | 1018.8 | |
| 20260503005527 | 45 | 0.0 | 0.0 | 0.00 | 0.00 | 0.00 | 60 | 1018.7 | |
| 20260503004527 | 46 | 293 | 0.0 | 1.7 | 0.00 | 0.00 | 0.00 | 58 | 1018.6 |
| 20260503003527 | 47 | 338 | 0.0 | 1.7 | 0.00 | 0.00 | 0.00 | 55 | 1018.6 |
| 20260503002527 | 47 | 346 | 0.9 | 2.6 | 0.00 | 0.00 | 0.00 | 53 | 1018.5 |
| 20260503001527 | 48 | 0 | 3.5 | 6.1 | 0.00 | 0.00 | 0.00 | 52 | 1018.4 |
| 20260503000527 | 49 | 9 | 3.5 | 6.1 | 0.00 | 0.00 | 0.00 | 50 | 1018.4 |
| 20260502235527 | 49 | 6 | 3.5 | 7.0 | 0.00 | 0.00 | 0.00 | 50 | 1018.4 |
| 20260502234547 | 50 | 333 | 2.6 | 6.1 | 0.00 | 0.00 | 0.00 | 48 | 1018.3 |
| 20260502233608 | 51 | 358 | 3.5 | 8.7 | 0.00 | 0.00 | 0.00 | 47 | 1018.2 |
| 20260502232527 | 51 | 344 | 3.5 | 5.2 | 0.00 | 0.00 | 0.00 | 45 | 1018.2 |
| 20260502231527 | 52 | 352 | 4.3 | 7.0 | 0.00 | 0.00 | 0.00 | 44 | 1018.1 |
| 20260502230527 | 52 | 332 | 2.6 | 5.2 | 0.00 | 0.00 | 0.00 | 45 | 1018.1 |
| 20260502225527 | 52 | 358 | 5.2 | 8.7 | 0.00 | 0.00 | 0.00 | 46 | 1018.1 |
| 20260502224527 | 53 | 352 | 2.6 | 6.1 | 0.00 | 0.00 | 0.00 | 44 | 1018.1 |
| 20260502223527 | 54 | 347 | 2.6 | 7.0 | 0.00 | 0.00 | 0.00 | 43 | 1018.1 |
| 20260502222527 | 53 | 343 | 2.6 | 6.1 | 0.00 | 0.00 | 0.00 | 44 | 1018.1 |
| 20260502221527 | 52 | 335 | 3.5 | 7.8 | 0.00 | 0.00 | 0.00 | 45 | 1018.1 |
| 20260502220527 | 53 | 6 | 3.5 | 9.6 | 0.00 | 0.00 | 0.00 | 46 | 1018.0 |
| 20260502215527 | 55 | 356 | 4.3 | 11.3 | 0.00 | 0.00 | 0.00 | 41 | 1017.9 |
| 20260502214528 | 56 | 1 | 5.2 | 8.7 | 0.00 | 0.00 | 0.00 | 41 | 1017.8 |
| 20260502213527 | 55 | 354 | 3.5 | 7.8 | 0.00 | 0.00 | 0.00 | 41 | 1017.8 |
| 20260502212527 | 54 | 358 | 6.1 | 11.3 | 0.00 | 0.00 | 0.00 | 41 | 1017.8 |
| 20260502211528 | 54 | 2 | 7.0 | 12.2 | 0.00 | 0.00 | 0.00 | 40 | 1017.7 |
| 20260502210527 | 56 | 339 | 4.3 | 7.8 | 0.00 | 0.00 | 0.00 | 40 | 1017.7 |
| 20260502205527 | 55 | 12 | 3.5 | 7.0 | 0.00 | 0.00 | 0.00 | 43 | 1017.7 |
| 20260502204628 | 54 | 301 | 4.3 | 6.1 | 0.00 | 0.00 | 0.00 | 41 | 1017.8 |
| 20260502203528 | 54 | 313 | 2.6 | 6.1 | 0.00 | 0.00 | 0.00 | 42 | 1017.7 |
| 20260502202528 | 54 | 3 | 3.5 | 7.8 | 0.00 | 0.00 | 0.00 | 42 | 1017.8 |
| 20260502201527 | 54 | 1 | 4.3 | 13.9 | 0.00 | 0.00 | 0.00 | 41 | 1017.9 |
| 20260502200527 | 54 | 357 | 6.1 | 11.3 | 0.00 | 0.00 | 0.00 | 43 | 1018.0 |
| 20260502195608 | 54 | 358 | 5.2 | 7.8 | 0.00 | 0.00 | 0.00 | 41 | 1018.0 |
| 20260502194527 | 56 | 8 | 5.2 | 11.3 | 0.00 | 0.00 | 0.00 | 42 | 1018.1 |
| 20260502193527 | 56 | 9 | 4.3 | 9.6 | 0.00 | 0.00 | 0.00 | 42 | 1018.2 |
| 20260502192528 | 57 | 273 | 4.3 | 7.0 | 0.00 | 0.00 | 0.00 | 38 | 1018.2 |
| 20260502191528 | 57 | 349 | 5.2 | 8.7 | 0.00 | 0.00 | 0.00 | 39 | 1018.3 |
| 20260502190528 | 56 | 353 | 3.5 | 7.8 | 0.00 | 0.00 | 0.00 | 43 | 1018.4 |
| 20260502185528 | 56 | 347 | 6.1 | 10.4 | 0.00 | 0.00 | 0.00 | 40 | 1018.5 |
| 20260502184528 | 55 | 12 | 3.5 | 6.1 | 0.00 | 0.00 | 0.00 | 44 | 1018.5 |
| 20260502183528 | 54 | 358 | 7.0 | 13.0 | 0.00 | 0.00 | 0.00 | 42 | 1018.6 |
| 20260502182548 | 56 | 288 | 4.3 | 9.6 | 0.00 | 0.00 | 0.00 | 39 | 1018.7 |
| 20260502181528 | 56 | 334 | 4.3 | 7.8 | 0.00 | 0.00 | 0.00 | 39 | 1018.7 |
| 20260502180528 | 56 | 327 | 4.3 | 10.4 | 0.00 | 0.00 | 0.00 | 40 | 1018.8 |
| 20260502163528 | 54 | 2 | 5.2 | 10.4 | 0.00 | 0.00 | 0.00 | 50 | 1019.3 |
| 20260502162528 | 54 | 350 | 5.2 | 7.8 | 0.00 | 0.00 | 0.00 | 49 | 1019.4 |
| 20260502161528 | 54 | 251 | 3.5 | 6.1 | 0.00 | 0.00 | 0.00 | 48 | 1019.5 |
| 20260502160528 | 53 | 7 | 7.0 | 9.6 | 0.00 | 0.00 | 0.00 | 50 | 1019.5 |
| 20260502151528 | 51 | 328 | 3.5 | 5.2 | 0.00 | 0.00 | 0.00 | 52 | 1019.5 |
| 20260502150528 | 49 | 1 | 3.5 | 6.1 | 0.00 | 0.00 | 0.00 | 51 | 1019.7 |
| 20260502130529 | 42 | 13 | 3.5 | 4.3 | 0.00 | 0.01 | 0.00 | 74 | 1019.5 |
| 20260502123549 | 41 | 15 | 2.6 | 5.2 | 0.00 | 0.01 | 0.00 | 75 | 1019.2 |
| 20260502122528 | 41 | 25 | 3.5 | 4.3 | 0.00 | 0.01 | 0.00 | 78 | 1019.1 |
| 20260502121548 | 41 | 16 | 1.7 | 2.6 | 0.00 | 0.01 | 0.00 | 82 | 1019.1 |
| 20260502120528 | 40 | 65 | 0.9 | 1.7 | 0.00 | 0.01 | 0.00 | 87 | 1019.0 |
| 20260502115549 | 39 | 0.0 | 0.0 | 0.00 | 0.01 | 0.00 | 92 | 1018.7 | |
| 20260502114529 | 37 | 0.0 | 0.0 | 0.00 | 0.01 | 0.00 | 95 | 1018.7 | |
| 20260502113528 | 36 | 0.0 | 0.0 | 0.00 | 0.01 | 0.00 | 95 | 1018.5 | |
| 20260502112529 | 36 | 0.0 | 0.0 | 0.00 | 0.01 | 0.00 | 95 | 1018.3 | |
| 20260502111528 | 36 | 0.0 | 0.0 | 0.00 | 0.01 | 0.00 | 95 | 1018.4 | |
| 20260502110528 | 35 | 0.0 | 0.0 | 0.00 | 0.01 | 0.00 | 95 | 1018.2 | |
| 20260502105539 | 36 | 64 | 0.9 | 2.6 | 0.00 | 0.01 | 0.00 | 95 | 1018.0 |
| 20260502104518 | 35 | 0.0 | 0.0 | 0.00 | 0.01 | 0.00 | 95 | 1018.0 | |
| 20260502103518 | 35 | 0.0 | 0.0 | 0.00 | 0.01 | 0.00 | 95 | 1018.2 | |
| 20260502102518 | 35 | 0.0 | 0.0 | 0.00 | 0.01 | 0.00 | 95 | 1018.3 | |
| 20260502101518 | 35 | 0.0 | 0.0 | 0.00 | 0.01 | 0.00 | 95 | 1018.2 | |
| 20260502100519 | 35 | 0.0 | 0.0 | 0.00 | 0.01 | 0.00 | 95 | 1018.3 | |
| 20260502091519 | 36 | 0.0 | 0.0 | 0.00 | 0.01 | 0.00 | 96 | 1018.3 | |
| 20260502090559 | 37 | 0.0 | 0.0 | 0.00 | 0.01 | 0.00 | 96 | 1018.3 | |
| 20260502071519 | 38 | 0.0 | 0.0 | 0.00 | 0.01 | 0.00 | 96 | 1018.0 | |
| 20260502070519 | 38 | 0.0 | 0.0 | 0.00 | 0.01 | 0.00 | 96 | 1018.1 | |
| 20260502065518 | 38 | 0.0 | 0.0 | 0.00 | 0.01 | 0.00 | 96 | 1018.2 | |
| 20260502064519 | 38 | 0.0 | 0.0 | 0.00 | 0.01 | 0.00 | 96 | 1018.2 | |
| 20260502063519 | 37 | 0.0 | 0.0 | 0.00 | 0.01 | 0.00 | 95 | 1018.4 | |
| 20260502062519 | 38 | 0.0 | 0.0 | 0.00 | 0.01 | 0.00 | 95 | 1018.4 | |
| 20260502061519 | 38 | 0.0 | 0.0 | 0.00 | 0.01 | 0.00 | 95 | 1018.5 | |
| 20260502060539 | 38 | 0.0 | 0.0 | 0.00 | 0.01 | 0.00 | 95 | 1018.6 | |
| 20260502055519 | 38 | 0.0 | 0.0 | 0.00 | 0.01 | 0.00 | 95 | 1018.5 | |
| 20260502054519 | 38 | 0.0 | 0.0 | 0.00 | 0.01 | 0.00 | 95 | 1018.4 | |
| 20260502053519 | 38 | 0.0 | 0.0 | 0.00 | 0.01 | 0.00 | 94 | 1018.6 | |
| 20260502052519 | 37 | 0.0 | 0.0 | 0.00 | 0.01 | 0.00 | 93 | 1018.6 | |
| 20260502051519 | 38 | 0.0 | 0.0 | 0.00 | 0.01 | 0.00 | 93 | 1018.5 | |
| 20260502050539 | 38 | 0.0 | 0.0 | 0.00 | 0.01 | 0.00 | 93 | 1018.5 | |
| 20260502045519 | 39 | 0.0 | 0.0 | 0.00 | 0.01 | 0.00 | 93 | 1018.4 | |
| 20260502044539 | 39 | 0.0 | 0.0 | 0.00 | 0.01 | 0.00 | 92 | 1018.5 | |
| 20260502043519 | 39 | 0.0 | 0.0 | 0.00 | 0.01 | 0.00 | 92 | 1018.6 | |
| 20260502042519 | 39 | 0.0 | 0.0 | 0.00 | 0.01 | 0.00 | 92 | 1018.7 | |
| 20260502041519 | 40 | 0.0 | 0.0 | 0.00 | 0.01 | 0.00 | 91 | 1018.7 | |
| 20260502040519 | 39 | 0.0 | 0.0 | 0.00 | 0.01 | 0.00 | 90 | 1018.6 | |
| 20260502035519 | 40 | 0.0 | 0.0 | 0.00 | 0.01 | 0.01 | 90 | 1018.6 | |
| 20260502034519 | 40 | 0.0 | 0.0 | 0.00 | 0.01 | 0.01 | 89 | 1018.6 | |
| 20260502033519 | 40 | 0.0 | 0.0 | 0.00 | 0.01 | 0.01 | 88 | 1018.7 | |
| 20260502032519 | 40 | 0.0 | 0.0 | 0.00 | 0.01 | 0.01 | 87 | 1018.7 | |
| 20260502031519 | 40 | 0.0 | 0.0 | 0.00 | 0.01 | 0.01 | 86 | 1018.8 | |
| 20260502030519 | 40 | 0.0 | 0.0 | 0.00 | 0.01 | 0.01 | 86 | 1018.8 | |
| 20260502025519 | 41 | 0.0 | 0.0 | 0.00 | 0.01 | 0.01 | 85 | 1018.7 | |
| 20260502024519 | 41 | 0.0 | 0.0 | 0.00 | 0.01 | 0.01 | 85 | 1018.6 | |
| 20260502023519 | 42 | 0.0 | 0.0 | 0.00 | 0.01 | 0.01 | 84 | 1018.4 | |
| 20260502022519 | 42 | 0.0 | 0.0 | 0.00 | 0.01 | 0.01 | 82 | 1018.2 | |
| 20260502021519 | 42 | 0.0 | 0.0 | 0.00 | 0.01 | 0.01 | 78 | 1018.2 | |
| 20260502020519 | 43 | 0.0 | 0.0 | 0.00 | 0.01 | 0.01 | 76 | 1018.3 | |
| 20260502015519 | 44 | 0.0 | 0.0 | 0.00 | 0.01 | 0.01 | 75 | 1018.2 | |
| 20260502014519 | 45 | 0.0 | 0.0 | 0.00 | 0.01 | 0.01 | 73 | 1018.3 | |
| 20260502013519 | 45 | 0.0 | 0.0 | 0.00 | 0.01 | 0.01 | 71 | 1018.0 |